Location: *
(45.1961°N, 1.9694°E)
Time: 03:36:46
(UTC+00:00)

ATLAS 2AS CENTAUR R/B - Pass Details

Date: 25 August 2019
Orbit: 927 x 1285 km, 63.7° (Epoch: 14 September)

Event Time Altitude Azimuth Distance (km) Brightness Sun altitude
Rises 23:40:26 0° 321° (NW) 4,229 6.5 -34.1°
Reaches altitude 10° 23:43:25 10° 327° (NNW) 3,229 5.8 -34.2°
Maximum altitude 23:51:00 53° 43° (NE) 1,437 3.4 -34.2°
Enters shadow 23:52:23 47° 77° (ENE) 1,514 3.4 -34.2°
